LOT1NP EPWA-LOWW

Flight info

Callsign LOT1NP
Flight time 1h 0m
Altitude 36000
Route EVIN7G EVINA N744 NAVUR PADKA OGDAS UPLAV MIKOV MIKO8W
Aircraft B38M/M-SDE1E2E3FGHIJ2J3J4J5M1RWXYZ/HB1

Departure

Time 2026-05-05 12:54
Airport Warsaw Chopin Airport (EPWA)

Arrival

Time 2026-05-05 13:54
Airport Vienna International Airport (LOWW)
Time Latitude Longitude Altitude Speed Heading
2026-05-05 12:23 52.17375 20.97047 342 ft 0 kts 241°
2026-05-05 12:44 52.17378 20.97055 342 ft 2 kts 241°
2026-05-05 12:44 52.17385 20.97076 342 ft 2 kts 241°
2026-05-05 12:44 52.17392 20.97097 343 ft 2 kts 241°
2026-05-05 12:44 52.17400 20.97118 343 ft 2 kts 241°
2026-05-05 12:45 52.17405 20.97138 343 ft 1 kts 275°
2026-05-05 12:45 52.17399 20.97156 344 ft 1 kts 332°
2026-05-05 12:45 52.17386 20.97165 344 ft 2 kts 330°
2026-05-05 12:45 52.17377 20.97173 344 ft 0 kts 329°
2026-05-05 12:46 52.17376 20.97174 344 ft 0 kts 330°
2026-05-05 12:47 52.17377 20.97174 344 ft 0 kts 330°
2026-05-05 12:48 52.17419 20.97135 343 ft 16 kts 332°
2026-05-05 12:48 52.17554 20.97016 342 ft 22 kts 331°
2026-05-05 12:48 52.17622 20.96883 341 ft 15 kts 249°
2026-05-05 12:48 52.17589 20.96796 340 ft 8 kts 237°
2026-05-05 12:49 52.17542 20.96671 338 ft 13 kts 239°
2026-05-05 12:49 52.17476 20.96574 335 ft 13 kts 175°
2026-05-05 12:49 52.17373 20.96654 335 ft 23 kts 152°
2026-05-05 12:49 52.17216 20.96793 335 ft 26 kts 152°
2026-05-05 12:50 52.17064 20.96927 334 ft 22 kts 152°
2026-05-05 12:50 52.16930 20.97044 335 ft 20 kts 152°
2026-05-05 12:50 52.16802 20.97158 338 ft 20 kts 151°
2026-05-05 12:50 52.16685 20.97261 338 ft 18 kts 148°
2026-05-05 12:51 52.16580 20.97364 338 ft 16 kts 132°
2026-05-05 12:51 52.16531 20.97524 338 ft 15 kts 115°
2026-05-05 12:51 52.16487 20.97678 338 ft 14 kts 115°
2026-05-05 12:51 52.16441 20.97806 337 ft 8 kts 162°
2026-05-05 12:52 52.16391 20.97789 336 ft 6 kts 205°
2026-05-05 12:52 52.16349 20.97757 335 ft 6 kts 206°
2026-05-05 12:52 52.16304 20.97719 335 ft 5 kts 214°
2026-05-05 12:52 52.16305 20.97675 335 ft 4 kts 287°
2026-05-05 12:53 52.16310 20.97657 335 ft 0 kts 294°
2026-05-05 12:53 52.16311 20.97655 335 ft 1 kts 294°
2026-05-05 12:53 52.16392 20.97361 338 ft 71 kts 294°
2026-05-05 12:53 52.16685 20.96328 335 ft 122 kts 294°
2026-05-05 12:54 52.17042 20.95016 478 ft 164 kts 293°
2026-05-05 12:54 52.17265 20.94201 906 ft 165 kts 292°
2026-05-05 12:54 52.17749 20.92484 1740 ft 176 kts 292°
2026-05-05 12:55 52.18283 20.90704 2502 ft 182 kts 288°
2026-05-05 12:55 52.18377 20.88642 3057 ft 192 kts 255°
2026-05-05 12:55 52.17978 20.86492 3633 ft 208 kts 250°
2026-05-05 12:55 52.17576 20.84154 4288 ft 224 kts 253°
2026-05-05 12:56 52.17207 20.81640 4951 ft 242 kts 255°
2026-05-05 12:56 52.16829 20.78914 5690 ft 256 kts 255°
2026-05-05 12:56 52.16427 20.76033 6499 ft 267 kts 255°
2026-05-05 12:56 52.15992 20.73157 7546 ft 265 kts 250°
2026-05-05 12:57 52.15220 20.70500 8509 ft 265 kts 231°
2026-05-05 12:57 52.13880 20.68466 9473 ft 266 kts 218°
2026-05-05 12:57 52.12367 20.66647 10180 ft 276 kts 217°
2026-05-05 12:57 52.10813 20.64781 10814 ft 289 kts 218°
2026-05-05 12:58 52.09175 20.62754 11362 ft 304 kts 219°
2026-05-05 12:58 52.07494 20.60638 12173 ft 309 kts 219°
2026-05-05 12:58 52.05807 20.58506 13009 ft 313 kts 219°
2026-05-05 12:58 52.04102 20.56349 13789 ft 317 kts 219°
2026-05-05 12:59 52.02356 20.54145 14550 ft 322 kts 219°
2026-05-05 12:59 52.00586 20.51914 15313 ft 326 kts 219°
2026-05-05 12:59 51.98778 20.49639 16061 ft 330 kts 219°
2026-05-05 13:00 51.94969 20.45420 17449 ft 341 kts 207°
2026-05-05 13:00 51.92700 20.44179 18132 ft 348 kts 194°
2026-05-05 13:01 51.85357 20.42882 20100 ft 362 kts 188°
2026-05-05 13:01 51.82853 20.42551 20718 ft 366 kts 188°
2026-05-05 13:01 51.80316 20.42202 21316 ft 370 kts 188°
2026-05-05 13:01 51.77752 20.41836 21901 ft 374 kts 188°
2026-05-05 13:02 51.75156 20.41456 22477 ft 377 kts 188°
2026-05-05 13:02 51.72568 20.41071 23033 ft 381 kts 188°
2026-05-05 13:02 51.69914 20.40673 23569 ft 385 kts 188°
2026-05-05 13:02 51.67249 20.40270 24093 ft 389 kts 188°
2026-05-05 13:03 51.64555 20.39862 24722 ft 390 kts 188°
2026-05-05 13:03 51.61858 20.39456 25265 ft 393 kts 188°
2026-05-05 13:03 51.59133 20.39046 25786 ft 396 kts 188°
2026-05-05 13:03 51.56409 20.38632 26292 ft 398 kts 188°
2026-05-05 13:04 51.53653 20.38217 26768 ft 402 kts 188°
2026-05-05 13:04 51.50872 20.37799 27249 ft 404 kts 188°
2026-05-05 13:04 51.48043 20.37374 27711 ft 408 kts 188°
2026-05-05 13:04 51.45217 20.36946 28210 ft 409 kts 188°
2026-05-05 13:05 51.42408 20.36427 28681 ft 411 kts 191°
2026-05-05 13:05 51.39620 20.35451 29090 ft 412 kts 200°
2026-05-05 13:05 51.37011 20.33756 29523 ft 412 kts 209°
2026-05-05 13:05 51.34550 20.31357 29912 ft 413 kts 216°
2026-05-05 13:06 51.32217 20.28640 30261 ft 417 kts 218°
2026-05-05 13:06 51.29929 20.25799 30921 ft 414 kts 219°
2026-05-05 13:06 51.27694 20.22986 31639 ft 408 kts 219°
2026-05-05 13:06 51.25544 20.20292 31833 ft 410 kts 219°
2026-05-05 13:07 51.21018 20.14710 31838 ft 402 kts 219°
2026-05-05 13:07 51.16566 20.09317 31836 ft 403 kts 218°
2026-05-05 13:08 51.12106 20.03970 31830 ft 404 kts 218°
2026-05-05 13:08 51.07634 19.98642 31828 ft 402 kts 218°
2026-05-05 13:09 51.03160 19.93323 31833 ft 404 kts 218°
2026-05-05 13:09 50.98859 19.87629 31833 ft 403 kts 224°
2026-05-05 13:10 50.94872 19.81417 31827 ft 402 kts 226°
2026-05-05 13:10 50.90953 19.75186 31838 ft 403 kts 226°
2026-05-05 13:11 50.86990 19.68950 31844 ft 402 kts 226°
2026-05-05 13:11 50.82993 19.62732 31843 ft 403 kts 225°
2026-05-05 13:12 50.78995 19.56560 31846 ft 403 kts 225°
2026-05-05 13:12 50.74981 19.50391 31842 ft 403 kts 225°
2026-05-05 13:13 50.70977 19.44257 31850 ft 403 kts 225°
2026-05-05 13:13 50.66971 19.38137 31850 ft 402 kts 225°
2026-05-05 13:14 50.62971 19.32042 31853 ft 403 kts 224°
2026-05-05 13:14 50.58936 19.25907 31851 ft 402 kts 224°
2026-05-05 13:15 50.54913 19.19805 31854 ft 403 kts 224°
2026-05-05 13:15 50.50885 19.13710 31850 ft 404 kts 224°
2026-05-05 13:16 50.46852 19.07628 31852 ft 404 kts 224°
2026-05-05 13:16 50.42879 19.01649 31849 ft 404 kts 224°
2026-05-05 13:17 50.38821 18.95556 31851 ft 404 kts 224°
2026-05-05 13:17 50.34793 18.89520 31845 ft 404 kts 224°
2026-05-05 13:18 50.30725 18.83440 31845 ft 404 kts 224°
2026-05-05 13:18 50.26695 18.77438 31843 ft 403 kts 224°
2026-05-05 13:19 50.22644 18.71417 31836 ft 402 kts 224°
2026-05-05 13:19 50.18625 18.65456 31842 ft 403 kts 224°
2026-05-05 13:20 50.14551 18.59428 31829 ft 403 kts 224°
2026-05-05 13:20 50.10498 18.53448 31835 ft 404 kts 224°
2026-05-05 13:21 50.06401 18.47418 31841 ft 404 kts 224°
2026-05-05 13:21 50.02341 18.41453 31839 ft 404 kts 224°
2026-05-05 13:22 49.98264 18.35477 31835 ft 405 kts 224°
2026-05-05 13:22 49.94179 18.29504 31825 ft 403 kts 223°
2026-05-05 13:23 49.90009 18.23662 31835 ft 404 kts 221°
2026-05-05 13:23 49.85754 18.18068 31836 ft 404 kts 220°
2026-05-05 13:24 49.81483 18.12487 31844 ft 404 kts 220°
2026-05-05 13:24 49.77239 18.06918 31845 ft 404 kts 221°
2026-05-05 13:25 49.72977 18.01316 31848 ft 405 kts 221°
2026-05-05 13:25 49.68733 17.95792 31858 ft 405 kts 219°
2026-05-05 13:26 49.64323 17.90486 31849 ft 405 kts 218°
2026-05-05 13:26 49.59851 17.85253 31859 ft 405 kts 218°
2026-05-05 13:27 49.55382 17.80009 31854 ft 405 kts 218°
2026-05-05 13:27 49.50903 17.74735 31842 ft 405 kts 218°
2026-05-05 13:28 49.46436 17.69474 31843 ft 406 kts 218°
2026-05-05 13:28 49.41985 17.64236 31844 ft 406 kts 218°
2026-05-05 13:29 49.37503 17.58968 31838 ft 405 kts 218°
2026-05-05 13:29 49.33171 17.53790 31625 ft 387 kts 222°
2026-05-05 13:30 49.31222 17.51022 31222 ft 382 kts 226°
2026-05-05 13:30 49.29415 17.48132 30720 ft 380 kts 228°
2026-05-05 13:30 49.27643 17.45133 30230 ft 377 kts 229°
2026-05-05 13:30 49.25939 17.42182 29764 ft 373 kts 229°
2026-05-05 13:31 49.24242 17.39232 29300 ft 370 kts 229°
2026-05-05 13:31 49.22545 17.36292 28831 ft 367 kts 229°
2026-05-05 13:31 49.20856 17.33381 28370 ft 363 kts 228°
2026-05-05 13:31 49.19206 17.30551 27925 ft 360 kts 228°
2026-05-05 13:32 49.17530 17.27687 27463 ft 357 kts 228°
2026-05-05 13:32 49.15892 17.24897 27013 ft 354 kts 228°
2026-05-05 13:32 49.14258 17.22119 26566 ft 351 kts 228°
2026-05-05 13:32 49.12635 17.19365 26121 ft 348 kts 228°
2026-05-05 13:33 49.11042 17.16667 25684 ft 345 kts 228°
2026-05-05 13:33 49.09443 17.13962 25243 ft 342 kts 228°
2026-05-05 13:33 49.07868 17.11298 24804 ft 339 kts 228°
2026-05-05 13:33 49.06302 17.08654 24371 ft 336 kts 228°
2026-05-05 13:34 49.04741 17.06021 23936 ft 333 kts 228°
2026-05-05 13:34 49.03193 17.03412 23519 ft 335 kts 228°
2026-05-05 13:34 49.01614 17.00756 23084 ft 350 kts 228°
2026-05-05 13:34 48.99961 16.97977 22620 ft 349 kts 228°
2026-05-05 13:35 48.98356 16.95281 22177 ft 345 kts 228°
2026-05-05 13:35 48.96768 16.92619 21731 ft 341 kts 228°
2026-05-05 13:35 48.95172 16.89943 21292 ft 338 kts 228°
2026-05-05 13:35 48.93608 16.87326 20857 ft 334 kts 228°
2026-05-05 13:36 48.92056 16.84729 20415 ft 331 kts 228°
2026-05-05 13:36 48.90528 16.82177 19834 ft 332 kts 228°
2026-05-05 13:36 48.88986 16.79602 19394 ft 329 kts 228°
2026-05-05 13:36 48.87442 16.77028 18941 ft 326 kts 227°
2026-05-05 13:37 48.85936 16.74516 18478 ft 324 kts 227°
2026-05-05 13:37 48.84420 16.71992 17922 ft 325 kts 227°
2026-05-05 13:37 48.82909 16.69479 17275 ft 322 kts 227°
2026-05-05 13:37 48.81415 16.67000 16649 ft 317 kts 226°
2026-05-05 13:38 48.79821 16.64769 15979 ft 314 kts 215°
2026-05-05 13:38 48.77880 16.63372 15371 ft 310 kts 193°
2026-05-05 13:38 48.75757 16.63160 14899 ft 302 kts 176°
2026-05-05 13:38 48.73718 16.63642 14521 ft 293 kts 171°
2026-05-05 13:39 48.71771 16.64264 14145 ft 284 kts 169°
2026-05-05 13:39 48.69837 16.64917 13785 ft 292 kts 169°
2026-05-05 13:39 48.67815 16.65595 13390 ft 299 kts 169°
2026-05-05 13:39 48.65798 16.66266 13003 ft 295 kts 169°
2026-05-05 13:40 48.63839 16.66915 12617 ft 285 kts 170°
2026-05-05 13:40 48.61936 16.67543 12263 ft 275 kts 170°
2026-05-05 13:40 48.60097 16.68145 11919 ft 277 kts 171°
2026-05-05 13:40 48.58138 16.68497 11541 ft 286 kts 184°
2026-05-05 13:41 48.56235 16.67776 11172 ft 284 kts 209°
2026-05-05 13:41 48.54650 16.66133 10819 ft 274 kts 218°
2026-05-05 13:41 48.53199 16.64345 10457 ft 264 kts 218°
2026-05-05 13:41 48.51803 16.62643 10194 ft 260 kts 217°
2026-05-05 13:42 48.50325 16.60904 10016 ft 273 kts 217°
2026-05-05 13:42 48.48858 16.59216 9886 ft 258 kts 217°
2026-05-05 13:42 48.47454 16.57618 9579 ft 249 kts 216°
2026-05-05 13:42 48.46138 16.56052 9415 ft 236 kts 226°
2026-05-05 13:43 48.45404 16.53915 9404 ft 234 kts 262°
2026-05-05 13:43 48.45741 16.51394 9415 ft 265 kts 297°
2026-05-05 13:43 48.47075 16.49396 9188 ft 279 kts 331°
2026-05-05 13:43 48.48978 16.48793 8835 ft 286 kts
2026-05-05 13:44 48.50954 16.49186 8259 ft 294 kts
2026-05-05 13:44 48.52922 16.48618 7865 ft 288 kts 329°
2026-05-05 13:44 48.54309 16.46644 7665 ft 267 kts 293°
2026-05-05 13:44 48.54665 16.43996 7496 ft 256 kts 258°
2026-05-05 13:45 48.53944 16.41662 7286 ft 246 kts 221°
2026-05-05 13:45 48.52477 16.40490 7100 ft 241 kts 191°
2026-05-05 13:45 48.50809 16.40257 6905 ft 241 kts 180°
2026-05-05 13:45 48.49163 16.40433 6668 ft 239 kts 172°
2026-05-05 13:46 48.47569 16.41111 6462 ft 237 kts 158°
2026-05-05 13:46 48.46182 16.42402 6381 ft 235 kts 147°
2026-05-05 13:46 48.44846 16.43785 6307 ft 225 kts 155°
2026-05-05 13:46 48.43431 16.44621 6183 ft 218 kts 167°
2026-05-05 13:47 48.41971 16.45185 6018 ft 213 kts 168°
2026-05-05 13:47 48.40540 16.45724 5861 ft 212 kts 167°
2026-05-05 13:47 48.39114 16.46294 5701 ft 211 kts 167°
2026-05-05 13:47 48.37697 16.46879 5493 ft 211 kts 166°
2026-05-05 13:48 48.36286 16.47474 5285 ft 210 kts 166°
2026-05-05 13:48 48.34902 16.48066 5106 ft 209 kts 166°
2026-05-05 13:48 48.33525 16.48670 4974 ft 207 kts 165°
2026-05-05 13:48 48.32154 16.49317 4726 ft 203 kts 165°
2026-05-05 13:49 48.30809 16.49926 4356 ft 200 kts 166°
2026-05-05 13:49 48.29505 16.50485 4093 ft 192 kts 167°
2026-05-05 13:49 48.28251 16.51012 3842 ft 182 kts 167°
2026-05-05 13:49 48.27067 16.51507 3611 ft 173 kts 167°
2026-05-05 13:50 48.25934 16.51980 3396 ft 168 kts 167°
2026-05-05 13:50 48.24812 16.52450 3167 ft 165 kts 167°
2026-05-05 13:50 48.23721 16.52906 2952 ft 161 kts 167°
2026-05-05 13:50 48.22669 16.53346 2745 ft 152 kts 167°
2026-05-05 13:51 48.21682 16.53760 2545 ft 142 kts 167°
2026-05-05 13:51 48.20723 16.54164 2365 ft 143 kts 168°
2026-05-05 13:51 48.19921 16.54496 2203 ft 138 kts 167°
2026-05-05 13:52 48.19549 16.54652 2134 ft 141 kts 167°
2026-05-05 13:52 48.18620 16.55042 1901 ft 139 kts 167°
2026-05-05 13:52 48.17722 16.55427 1754 ft 122 kts 167°
2026-05-05 13:52 48.16901 16.55784 1700 ft 124 kts 170°
2026-05-05 13:53 48.16063 16.56120 1548 ft 126 kts 169°
2026-05-05 13:53 48.15226 16.56465 1226 ft 123 kts 168°
2026-05-05 13:53 48.14422 16.56800 1089 ft 121 kts 166°
2026-05-05 13:53 48.13605 16.57148 963 ft 123 kts 168°
2026-05-05 13:54 48.12771 16.57493 779 ft 127 kts 166°
2026-05-05 13:54 48.11914 16.57854 626 ft 129 kts 166°
2026-05-05 13:54 48.11127 16.58169 593 ft 76 kts 163°
2026-05-05 13:54 48.10724 16.58351 598 ft 44 kts 164°
2026-05-05 13:55 48.10513 16.58441 600 ft 20 kts 165°
2026-05-05 13:55 48.10384 16.58470 599 ft 17 kts 180°
2026-05-05 13:55 48.10283 16.58454 600 ft 13 kts 189°
2026-05-05 13:55 48.10202 16.58426 600 ft 10 kts 192°
2026-05-05 13:56 48.10144 16.58399 601 ft 6 kts 216°
2026-05-05 13:56 48.10130 16.58362 601 ft 4 kts 268°
2026-05-05 13:56 48.10139 16.58333 602 ft 3 kts 314°
2026-05-05 13:56 48.10170 16.58308 602 ft 8 kts 337°
2026-05-05 13:57 48.10290 16.58251 603 ft 20 kts 344°
2026-05-05 13:57 48.10422 16.58196 603 ft 18 kts 345°
2026-05-05 13:57 48.10547 16.58144 601 ft 18 kts 344°
2026-05-05 13:57 48.10676 16.58088 600 ft 19 kts 344°
2026-05-05 13:58 48.10804 16.58033 599 ft 19 kts 344°
2026-05-05 13:58 48.10933 16.57978 597 ft 19 kts 344°
2026-05-05 13:58 48.11065 16.57922 596 ft 19 kts 344°
2026-05-05 13:58 48.11194 16.57867 595 ft 19 kts 345°
2026-05-05 13:59 48.11441 16.57764 595 ft 11 kts 344°
2026-05-05 13:59 48.11495 16.57709 595 ft 9 kts 294°
2026-05-05 14:00 48.11540 16.57566 597 ft 6 kts 294°
2026-05-05 14:00 48.11548 16.57516 597 ft 3 kts 248°
2026-05-05 14:00 48.11527 16.57491 598 ft 2 kts 207°
2026-05-05 14:00 48.11520 16.57485 599 ft 0 kts 207°
2026-05-05 14:02 48.11517 16.57483 599 ft 3 kts 207°
2026-05-05 14:02 48.11441 16.57418 600 ft 13 kts 233°
2026-05-05 14:02 48.11453 16.57310 602 ft 9 kts 295°
2026-05-05 14:02 48.11488 16.57194 604 ft 14 kts 295°
2026-05-05 14:03 48.11529 16.57071 605 ft 12 kts 297°
2026-05-05 14:03 48.11568 16.56959 605 ft 11 kts 297°
2026-05-05 14:03 48.11595 16.56915 605 ft 4 kts 14°
2026-05-05 14:03 48.11634 16.56941 605 ft 7 kts 26°
2026-05-05 14:04 48.11655 16.56956 605 ft 0 kts 26°
2026-05-05 14:04 48.11656 16.56957 605 ft 0 kts 26°